Winner, SD

3:29 AM CDT on April 29, 2017 (GMT -0500)
Winner

Weather History for KICR - August, 2012

Change the Weather History Date:

Sunday, August 19, 2012

  Actual Average Record
Temperature  
Mean Temperature 72 °F 74 °F  
Max Temperature 86 °F 87 °F 96 °F (2010)
Min Temperature 58 °F 62 °F 51 °F (2015)
Degree Days  
Heating Degree Days 0 0  
Month to date heating degree days 3 0  
Since 1 June heating degree days 11 59  
Since 1 July heating degree days 3 5  
Cooling Degree Days 7 9  
Month to date cooling degree days 158 203  
Year to date cooling degree days 1153 709  
Since 1 June cooling degree days 1056 679  
Growing Degree Days 20 (Base 50)    
Moisture  
Dew Point 45 °F    
Average Humidity 50    
Maximum Humidity 77    
Minimum Humidity 22    
Precipitation  
Precipitation 0.00 in 0.08 in 0.18 in (2007)
Month to date precipitation 0.26 1.62  
Year to date precipitation 10.03 16.30  
Sea Level Pressure  
Sea Level Pressure 30.03 in    
Wind  
Wind Speed 8 mph (SW)    
Max Wind Speed 15 mph    
Max Gust Speed 23 mph    
Visibility 10 miles    
Events      
T = Trace of Precipitation, MM = Missing Value Source: NWS Daily Summary

Daily Weather History Graph

Daily Weather History Graph

Search for Another Location

Airport or City:

Trip Planner

Search our weather history database for the weather conditions in past years. The results will help you decide how hot, cold, wet, or windy it might be!

Date:

Astronomy

Aug. 19, 2012 Rise Set
Actual Time 6:49 AM CDT 8:35 PM CDT
Civil Twilight 6:19 AM CDT 9:05 PM CDT
Nautical Twilight 5:41 AM CDT 9:42 PM CDT
Astronomical Twilight 5:01 AM CDT 10:22 PM CDT
Moon 9:12 AM CDT (8/19) 9:18 PM CDT (8/19)
Length of Visible Light 14h 46m
Length of Day
13h 45m
Waxing Crescent, 5% of the Moon is Illuminated
Aug 19
Waxing Crescent
Aug 24
First Quarter
Aug 31
Full
Sep 8
Last Quarter
Sep 15
New

Hourly Weather History & Observations

Time (CDT) Temp. Dew Point Humidity Pressure Visibility Wind Dir Wind Speed Gust Speed Precip Events Conditions
12:53 AM 59.0 °F 48.0 °F 67% 30.07 in 10.0 mi South 6.9 mph - N/A   Scattered Clouds
1:53 AM 60.1 °F 50.0 °F 69% 30.06 in 10.0 mi SSW 9.2 mph - N/A   Clear
2:53 AM 59.0 °F 50.0 °F 72% 30.06 in 10.0 mi SSW 8.1 mph - N/A   Clear
3:53 AM 57.9 °F 48.9 °F 72% 30.07 in 10.0 mi SW 9.2 mph - N/A   Overcast
4:53 AM 57.9 °F 50.0 °F 75% 30.06 in 10.0 mi WSW 6.9 mph - N/A   Partly Cloudy
5:53 AM 57.9 °F 48.9 °F 72% 30.07 in 10.0 mi SW 9.2 mph - N/A   Clear
6:53 AM 57.9 °F 48.9 °F 72% 30.08 in 10.0 mi SW 8.1 mph - N/A   Clear
8:53 AM 68.0 °F 46.9 °F 47% 30.09 in 10.0 mi WSW 5.8 mph - N/A   Clear
9:53 AM 75.0 °F 44.1 °F 33% 30.07 in 10.0 mi West 12.7 mph - N/A   Clear
10:53 AM 79.0 °F 42.1 °F 27% 30.06 in 10.0 mi West 9.2 mph - N/A   Clear
11:53 AM 79.0 °F 42.1 °F 27% 30.06 in 10.0 mi Variable 3.5 mph - N/A   Clear
12:53 PM 81.0 °F 41.0 °F 24% 30.05 in 10.0 mi Variable 3.5 mph - N/A   Clear
1:53 PM 82.9 °F 41.0 °F 23% 30.03 in 10.0 mi Variable 6.9 mph - N/A   Partly Cloudy
2:53 PM 84.0 °F 41.0 °F 22% 30.01 in 10.0 mi NNW 4.6 mph - N/A   Partly Cloudy
3:53 PM 82.0 °F 39.9 °F 22% 30.00 in 10.0 mi NNE 10.4 mph - N/A   Mostly Cloudy
4:53 PM 84.9 °F 41.0 °F 21% 29.98 in 10.0 mi NNE 13.8 mph 17.3 mph N/A   Mostly Cloudy
5:53 PM 82.9 °F 39.9 °F 22% 29.98 in 10.0 mi North 10.4 mph - N/A   Mostly Cloudy
6:53 PM 82.0 °F 39.0 °F 22% 29.97 in 10.0 mi North 11.5 mph - N/A   Partly Cloudy
7:53 PM 78.1 °F 44.1 °F 30% 29.97 in 10.0 mi ENE 8.1 mph - N/A   Clear
8:53 PM 71.1 °F 46.9 °F 42% 29.99 in 10.0 mi East 9.2 mph - N/A   Clear
9:53 PM 66.0 °F 46.9 °F 50% 30.00 in 10.0 mi ESE 9.2 mph - N/A   Clear
10:53 PM 62.1 °F 46.9 °F 58% 30.01 in 10.0 mi SE 9.2 mph - N/A   Clear
11:53 PM 60.1 °F 48.0 °F 64% 30.02 in 10.0 mi ESE 9.2 mph - N/A   Clear